Location: Beaurecueil
(43.5122°N, 5.5450°E)
Time: 20:56:11
(UTC+00:00)

Cosmos 1975 - Pass Details

Date: 18 September 2020
Orbit: 540 x 563 km, 82.5° (Epoch: 27 October)

Event Time Altitude Azimuth Distance (km) Brightness Sun altitude
Rises 18:43:06 0° 199° (SSW) 2,741 6.5 -11.8°
Reaches altitude 10° 18:45:18 10° 204° (SSW) 1,850 5.6 -12.2°
Maximum altitude 18:49:17 51° 281° (W) 710 3.8 -12.9°
Drops below altitude 10° 18:53:17 10° 358° (N) 1,861 5.7 -13.6°
Sets 18:55:31 0° 4° (N) 2,759 6.6 -14.0°
